Weather History for Port Angeles, WA

Change the Weather History Date:

Sunday, December 8, 2013

  Actual Average Record
Temperature  
Mean Temperature 28 °F -  
Max Temperature 34 °F 45 °F 58 °F (1957)
Min Temperature 21 °F 35 °F 13 °F (1972)
Degree Days  
Heating Degree Days 38    
Moisture  
Dew Point 15 °F    
Average Humidity 62    
Maximum Humidity 82    
Minimum Humidity 50    
Precipitation  
Precipitation 0.00 in - - ()
Sea Level Pressure  
Sea Level Pressure 30.49 in    
Wind  
Wind Speed - (North)    
Max Wind Speed -    
Max Gust Speed -    
Visibility 10 miles    
Events      
Averages and records for this station are not official NWS values.
T = Trace of Precipitation, MM = Missing Value Source: NWS Daily Summary

Daily Weather History Graph

Daily Weather History Graph

Search for Another Location

Airport:

Trip Planner

Search our weather history database for the weather conditions in past years. The results will help you decide how hot, cold, wet, or windy it might be!

Date:

Astronomy

Dec. 08, 2013 Rise Set
Actual Time 7:51 AM PST 4:20 PM PST
Civil Twilight 7:15 AM PST 4:56 PM PST
Nautical Twilight 6:35 AM PST 5:36 PM PST
Astronomical Twilight 5:58 AM PST 6:13 PM PST
Moon 11:53 AM PST (12/8) 11:40 PM PST (12/8)
Length of Visible Light 9h 41m
Length of Day
8h 28m
Waxing Crescent, 41% of the Moon is Illuminated
Dec 8
Waxing Crescent
Dec 9
First Quarter
Dec 17
Full
Dec 25
Last Quarter
Jan 1
New

Hourly Weather History & Observations

Time (PST) Temp. Dew Point Humidity Pressure Visibility Wind Dir Wind Speed Gust Speed Precip Events Conditions
12:53 AM 21.0 °F 10.9 °F 65% 30.42 in 10.0 mi North - - N/A   Clear
1:53 AM 24.1 °F 10.9 °F 57% 30.43 in 10.0 mi North - - N/A   Clear
2:53 AM 23.0 °F 10.9 °F 60% 30.43 in 10.0 mi North - - N/A   Clear
3:53 AM 24.1 °F 10.9 °F 57% 30.41 in 10.0 mi North - - N/A   Clear
4:53 AM 25.0 °F 12.0 °F 58% 30.43 in 10.0 mi North - - N/A   Scattered Clouds
5:53 AM 26.1 °F 12.9 °F 58% 30.45 in 10.0 mi North - - N/A   Overcast
6:53 AM 28.0 °F 12.9 °F 53% 30.45 in 10.0 mi North - - N/A   Overcast
7:53 AM 27.0 °F 14.0 °F 58% 30.45 in 10.0 mi North - - N/A   Overcast
8:53 AM 27.0 °F 16.0 °F 63% 30.48 in 10.0 mi North - - N/A   Overcast
9:53 AM 30.0 °F 17.1 °F 59% 30.49 in 10.0 mi North - - N/A   Overcast
10:53 AM 32.0 °F 18.0 °F 56% 30.49 in 10.0 mi North - - N/A   Overcast
11:53 AM 34.0 °F 18.0 °F 52% 30.49 in 10.0 mi North - - N/A   Clear
12:53 PM 34.0 °F 17.1 °F 50% 30.50 in 10.0 mi North - - N/A   Clear
1:53 PM 34.0 °F 17.1 °F 50% 30.51 in 10.0 mi North - - N/A   Clear
2:53 PM 34.0 °F 18.0 °F 52% 30.52 in 10.0 mi North - - N/A   Clear
3:53 PM 30.0 °F 17.1 °F 59% 30.53 in 10.0 mi North - - N/A   Clear
4:53 PM 28.0 °F 15.1 °F 58% 30.53 in 10.0 mi North - - N/A   Clear
5:53 PM 26.1 °F 16.0 °F 66% 30.53 in 10.0 mi North - - N/A   Clear
6:53 PM 24.1 °F 16.0 °F 71% 30.51 in 10.0 mi North - - N/A   Clear
7:53 PM 23.0 °F 18.0 °F 81% 30.53 in 10.0 mi North - - N/A   Clear
8:53 PM 21.9 °F 17.1 °F 82% 30.55 in 10.0 mi North - - N/A   Clear
9:53 PM 23.0 °F 18.0 °F 81% 30.56 in 10.0 mi North - - N/A   Overcast
10:53 PM 25.0 °F 18.0 °F 75% 30.56 in 10.0 mi North - - N/A   Overcast
11:53 PM 25.0 °F 19.0 °F 78% 30.55 in 10.0 mi North - - N/A   Overcast